Location: Newark
(44.4156°N, 12.1972°E)
Time: 08:11:47
(UTC+00:00)

STARLINK-1144 - Pass Details

Date: 31 January 2020
Orbit: 548 x 551 km, 53.0° (Epoch: 23 February)

Event Time Altitude Azimuth Distance (km) Brightness Sun altitude
Rises 18:22:33 0° 298° (WNW) 2,724 8.1 -22.3°
Reaches altitude 10° 18:24:55 10° 289° (WNW) 1,827 7.2 -22.7°
Maximum altitude 18:28:41 34° 225° (SW) 918 5.1 -23.4°
Enters shadow 18:30:18 25° 182° (S) 1,142 5.2 -23.7°
